EW1552 Weather Reports


time (UTC)temp
C
wind
direction
speed
KPH
gust
KPH
rain 1hr
cm
rain 24hr
cm
rain mn
cm
humidity
%
barometer
mb
20260508065043 17 355 9.7 17.7 0.00 0.00 0.00 42 1015.2
20260508064010 16 38 6.4 14.5 0.00 0.00 0.00 41 1015.2
20260508062949 17 348 4.8 14.5 0.00 0.00 0.00 40 1015.2
20260508060753 17 336 9.7 17.7 0.00 0.00 0.00 41 1015.2
20260508054716 17 338 3.2 14.5 0.00 0.00 0.00 40 1015.2
20260508053733 17 339 4.8 14.5 0.00 0.00 0.00 39 1015.2
20260508052749 17 338 6.4 12.9 0.00 0.00 0.00 39 1015.2
20260508051759 18 322 3.2 11.3 0.00 0.00 0.00 36 1015.2
20260508045620 18 300 4.8 16.1 0.00 0.00 0.00 34 1015.0
20260508044638 18 325 6.4 22.5 0.00 0.00 0.00 38 1015.0
20260508042444 18 290 9.7 20.9 0.00 0.00 0.00 38 1014.7
20260508041501 18 304 9.7 17.7 0.00 0.00 0.00 38 1014.7
20260508040517 18 300 11.3 22.5 0.00 0.00 0.00 36 1014.5
20260508035455 18 281 12.9 22.5 0.00 0.00 0.00 35 1014.4
20260508034444 18 303 12.9 20.9 0.00 0.00 0.00 34 1014.3
20260508033413 19 292 8.0 17.7 0.00 0.00 0.00 33 1014.1
20260508032407 19 265 6.4 17.7 0.00 0.00 0.00 31 1014.0
20260508031418 19 263 12.9 25.7 0.00 0.00 0.00 29 1013.9
20260508030402 20 275 11.3 25.7 0.00 0.00 0.00 27 1013.9
20260508025403 20 271 11.3 29.0 0.00 0.00 0.00 26 1014.0
20260508024405 20 281 16.1 29.0 0.00 0.00 0.00 24 1013.9
20260508023331 21 302 12.9 22.5 0.00 0.00 0.00 23 1013.9
20260508022354 21 243 11.3 22.5 0.00 0.00 0.00 21 1013.8
20260508021323 21 256 11.3 25.7 0.00 0.00 0.00 20 1013.8
20260508015157 22 285 16.1 25.7 0.00 0.00 0.00 19 1013.8
20260508014130 22 295 17.7 27.4 0.00 0.00 0.00 20 1013.8
20260508013125 22 316 20.9 32.2 0.00 0.00 0.00 23 1013.7
20260508012136 22 315 20.9 43.5 0.00 0.00 0.00 20 1013.8
20260508011145 22 294 24.1 43.5 0.00 0.00 0.00 19 1013.9
20260508010115 22 286 22.5 38.6 0.00 0.00 0.00 19 1013.9
20260508005053 22 283 20.9 35.4 0.00 0.00 0.00 21 1013.8
20260508004058 22 286 19.3 40.2 0.00 0.00 0.00 24 1014.0
20260508003057 22 259 24.1 40.2 0.00 0.00 0.00 21 1014.0
20260508002032 22 307 22.5 38.6 0.00 0.00 0.00 20 1013.9
20260508001023 22 267 22.5 37.0 0.00 0.00 0.00 23 1013.9
20260507235955 22 285 22.5 37.0 0.00 0.00 0.00 22 1014.1
20260507234924 22 281 22.5 38.6 0.00 0.00 0.00 18 1013.9
20260507233850 22 277 24.1 41.8 0.00 0.00 0.00 17 1014.0
20260507232841 22 267 25.7 46.7 0.00 0.00 0.00 20 1014.1
20260507231856 22 292 27.4 46.7 0.00 0.00 0.00 19 1014.4
20260507230823 22 288 27.4 45.1 0.00 0.00 0.00 20 1014.4
20260507223608 21 263 22.5 40.2 0.00 0.00 0.00 28 1014.4
20260507221426 22 264 20.9 37.0 0.00 0.00 0.00 28 1014.8
20260507220417 21 298 24.1 37.0 0.00 0.00 0.00 30 1014.8
20260507215359 21 285 24.1 41.8 0.00 0.00 0.00 30 1015.0
20260507214341 21 242 24.1 41.8 0.00 0.00 0.00 28 1015.2
20260507212200 21 283 24.1 45.1 0.00 0.00 0.00 31 1015.4
20260507210000 21 258 19.3 37.0 0.00 0.00 0.00 33 1015.6
20260507205016 21 262 19.3 35.4 0.00 0.00 0.00 31 1015.7
20260507204015 20 251 20.9 35.4 0.00 0.00 0.00 33 1015.6
20260507203022 20 269 20.9 46.7 0.00 0.00 0.00 38 1015.8
20260507202034 20 259 25.7 46.7 0.00 0.00 0.00 37 1015.7
20260507201008 19 292 25.7 48.3 0.00 0.00 0.00 39 1016.0
20260507195944 19 259 27.4 48.3 0.00 0.00 0.00 39 1016.0
20260507194937 18 276 32.2 48.3 0.00 0.00 0.00 37 1016.1
20260507193909 18 275 29.0 45.1 0.00 0.00 0.00 40 1016.3
20260507192911 18 286 24.1 45.1 0.00 0.00 0.00 42 1016.4
20260507191928 18 287 22.5 35.4 0.00 0.00 0.00 43 1016.6
20260507190930 18 285 24.1 38.6 0.00 0.00 0.00 45 1016.7
20260507185936 17 254 24.1 43.5 0.00 0.00 0.00 44 1016.8
20260507184958 17 296 22.5 43.5 0.00 0.00 0.00 45 1016.9
20260507182736 17 296 19.3 38.6 0.00 0.00 0.00 47 1017.1
20260507181740 17 281 19.3 38.6 0.00 0.00 0.00 49 1017.1
20260507180730 16 272 19.3 33.8 0.00 0.00 0.00 53 1017.3
20260507173532 15 304 22.5 37.0 0.00 0.00 0.00 57 1017.6
20260507172527 15 271 20.9 35.4 0.00 0.00 0.00 58 1017.7
20260507171521 15 284 20.9 38.6 0.00 0.00 0.00 60 1017.9
20260507165324 14 254 24.1 43.5 0.00 0.00 0.00 61 1017.7
20260507163134 14 291 27.4 48.3 0.00 0.00 0.00 63 1017.9
20260507162121 13 294 29.0 46.7 0.00 0.00 0.00 63 1017.8
20260507161127 13 268 29.0 46.7 0.00 0.00 0.00 65 1017.8
20260507160058 13 234 29.0 46.7 0.00 0.00 0.00 66 1018.1
20260507155058 13 298 27.4 45.1 0.00 0.00 0.00 68 1018.1
20260507154123 13 277 24.1 40.2 0.00 0.00 0.00 67 1018.2
20260507153105 13 284 22.5 40.2 0.00 0.00 0.00 67 1018.4
20260507152101 13 261 22.5 40.2 0.00 0.00 0.00 68 1018.2
20260507150014 13 285 24.1 41.8 0.00 0.00 0.00 68 1018.5
20260507145035 13 271 20.9 37.0 0.00 0.00 0.00 70 1018.6
20260507142846 12 288 20.9 35.4 0.00 0.00 0.00 72 1018.5
20260507141827 12 265 17.7 43.5 0.00 0.00 0.00 72 1018.2
20260507140757 12 241 22.5 43.5 0.00 0.00 0.00 73 1018.1
20260507135726 12 266 24.1 41.8 0.00 0.00 0.00 73 1018.0
20260507133608 12 252 24.1 40.2 0.00 0.00 0.00 73 1017.9
20260507131517 12 260 19.3 37.0 0.00 0.00 0.00 74 1017.9
20260507130538 12 257 17.7 33.8 0.00 0.00 0.00 74 1017.9
20260507125544 12 231 19.3 33.8 0.00 0.00 0.00 73 1017.9
20260507123418 13 248 11.3 22.5 0.00 0.00 0.00 73 1017.9
20260507122435 13 242 8.0 16.1 0.00 0.00 0.00 73 1017.8
20260507120248 13 286 6.4 19.3 0.00 0.00 0.00 72 1017.8
20260507115224 13 290 4.8 19.3 0.00 0.00 0.00 72 1017.8
20260507114240 13 228 6.4 12.9 0.00 0.00 0.00 73 1017.7
20260507113214 13 323 9.7 19.3 0.00 0.00 0.00 73 1017.7
20260507112234 13 275 8.0 25.7 0.00 0.00 0.00 73 1017.7
20260507111226 13 303 16.1 33.8 0.00 0.00 0.00 73 1017.6
20260507110226 13 267 16.1 33.8 0.00 0.00 0.00 73 1017.5
20260507105158 13 280 16.1 32.2 0.00 0.00 0.00 73 1017.4
20260507104141 13 273 19.3 32.2 0.00 0.00 0.00 72 1017.1
20260507103119 13 265 16.1 30.6 0.00 0.00 0.00 73 1017.0
20260507100949 14 303 17.7 30.6 0.00 0.00 0.00 73 1016.8
20260507095944 14 250 19.3 32.2 0.00 0.00 0.00 73 1016.9
20260507094917 14 275 19.3 32.2 0.00 0.00 0.00 72 1016.9
20260507093937 14 285 17.7 30.6 0.00 0.00 0.00 72 1017.0
20260507092950 15 273 17.7 30.6 0.00 0.00 0.00 72 1017.0
20260507091942 15 278 17.7 43.5 0.00 0.00 0.00 73 1017.1
20260507083549 15 289 16.1 45.1 0.00 0.00 0.00 73 1017.4
20260507082549 15 287 20.9 45.1 0.00 0.00 0.00 72 1017.4
20260507081549 15 287 22.5 37.0 0.00 0.00 0.00 71 1017.3
20260507080601 15 331 20.9 41.8 0.00 0.00 0.00 71 1017.1
20260507075602 15 292 20.9 41.8 0.00 0.00 0.00 71 1017.1
20260507073449 15 318 20.9 37.0 0.00 0.00 0.00 70 1017.0
20260507072424 15 307 20.9 37.0 0.00 0.00 0.00 70 1016.9
20260507071442 16 281 22.5 37.0 0.00 0.00 0.00 70 1016.9
20260507070449 16 298 24.1 45.1 0.00 0.00 0.00 69 1017.1